COSMOS 1823 DEB

Satellite information

Favourite Embed

Satellite Type and Status

DEBRISIN ORBIT

Key statistics

Satellite COSMOS 1823 DEB at a glance.

Uptime

14133

Days in orbit

Revolutions

≈ 12.5

Per day

Orbit

LEO

Low Earth Orbit

Inclination

73.6

Latest

Satellite identification and parameters

Extended collection of information and parameters for COSMOS 1823 DEB.

Object identification

Identified? True

Debris? True

Object name: COSMOS 1823 DEB

International designator: 1987-020FE

Object number (NORAD): 39830

Object ID (CCSDS): 39830

Country: COMMONWEALTH OF INDEPENDENT STATES (CIS)

Current information (Y/N): Y

RCS size: SMALL

Orbital parameters

Period: 115.44 minutes

Inclination: 73.5972 deg

SMA: 7853.504 km

Apoapsis: 1494.099 km

Periapsis: 1456.638 km

RAAN: 233.7727 deg

Eccentricy: 0.00238495

Argument of periapsis: 100.2538 deg

Mean anomaly: 260.12 deg

Mean motion: 12.47405305 rev/day

Mean motion (dot): 0.00000363 rev/day2

B* drag term: 0.0025877101 1/REarth

Two-line elements (TLE)

Creation date: Oct. 30, 2025, 3:32 a.m.

Reference frame: TEME

Reference center: EARTH

Epoch: Oct. 29, 2025, 12:17 p.m. UTC

TLE line 0: 0 COSMOS 1823 DEB

TLE line 1: 1 39830U 87020FE 25302.51197882 .00000363 00000-0 25877-2 0 9996

TLE line 2: 2 39830 73.5972 233.7727 0023849 100.2538 260.1200 12.47405305518729

Live tracking on map

Real-time ground track for satellite COSMOS 1823 DEB.

In-orbit conjunctions

A list of the most updated potential collisions computed for object COSMOS 1823 DEB.

Target Orbit TCA Probability of collision Miss distance Type
COSMOS 1292 LEO 2025-07-20 06:58:01 0.0003445144 580.0 (m) PAYLOAD
COSMOS 412 LEO 2025-01-08 00:24:39 0.0004985273 191.0 (m) PAYLOAD
COSMOS 873 LEO 2024-06-17 13:39:42 0.00038649 372.0 (m) PAYLOAD

Associated space launch

A satellite for the GEO-IK geodetic system

COSMOS 1823 DEB was lifted into orbit during the mission ‘Tsiklon-3 | Geo-IK 9’, on board a Tsiklon-3 space rocket.

The launch took place on Feb. 20, 1987, 4:43 a.m. from 32/2.

For more information about the launch, click the button.

Launch to space Tsiklon-3 | Geo-IK 9
Tsiklon-3 | Geo-IK 9

Agency: N/A

Status: Launch Successful

Launch date: Feb. 20, 1987, 4:43 a.m. UTC

Rocket: Tsiklon-3

Launch pad: 32/2

Location: Plesetsk Cosmodrome, Russian Federation

...

Latest news about this satellite

There are no fresh news available about this satellite. Check back as we update our databases every day.


Newsletter sign-up

Weekly statistics, charts and insights to help you stay on top of the space industry.